Powrót do katalogu

STARLINK-31795

AktywnyŁącznośćVLEO
NORAD 59645·PAYLOAD·🇺🇸 United States

Wystrzelony May 3, 2024 z Cape Canaveral Space Force Station

Loading…

Następne Przeloty (najbliższe 24 godziny)

TLE

ŚwieżeSource: CelesTrak SupGP

Epoka: Sep 14, 2026, 20:41 UTC

1 59645C 24082Q   26257.86229167 -.00009047  00000+0 -32779-3 0  2577
2 59645  43.0026  92.8955 0001405 271.0218  18.2466 15.27571571    14

Śledź STARLINK-31795 w czasie rzeczywistym z AllMySat

Download on the App Store